Eden Prairie, MN

11:21 AM CST on February 26, 2017 (GMT -0600)
Flying Cloud

Weather History for KFCM - January, 2013

Change the Weather History Date:

Saturday, January 26, 2013

  Actual Average Record
Temperature  
Mean Temperature 12 °F -  
Max Temperature 24 °F 22 °F 48 °F (2002)
Min Temperature 0 °F 9 °F -9 °F (2009)
Degree Days  
Heating Degree Days 53    
Moisture  
Dew Point 3 °F    
Average Humidity 63    
Maximum Humidity 79    
Minimum Humidity 46    
Precipitation  
Precipitation 0.00 in - - ()
Sea Level Pressure  
Sea Level Pressure 30.29 in    
Wind  
Wind Speed 6 mph (SE)    
Max Wind Speed 14 mph    
Max Gust Speed -    
Visibility 10 miles    
Events      
Averages and records for this station are not official NWS values.
T = Trace of Precipitation, MM = Missing Value Source: NWS Daily Summary

Daily Weather History Graph

Daily Weather History Graph

Search for Another Location

Airport or City:

Trip Planner

Search our weather history database for the weather conditions in past years. The results will help you decide how hot, cold, wet, or windy it might be!

Date:

Astronomy

Jan. 26, 2013 Rise Set
Actual Time 7:39 AM CST 5:14 PM CST
Civil Twilight 7:07 AM CST 5:45 PM CST
Nautical Twilight 6:32 AM CST 6:21 PM CST
Astronomical Twilight 5:57 AM CST 6:55 PM CST
Moon 5:11 PM CST 6:56 AM CST
Length of Visible Light 10h 38m
Length of Day
9h 34m
Full, 100% of the Moon is Illuminated
Jan 26
Full
Jan 26
Full
Feb 3
Last Quarter
Feb 10
New
Feb 17
First Quarter

Hourly Weather History & Observations

Time (CST) Temp. Windchill Dew Point Humidity Pressure Visibility Wind Dir Wind Speed Gust Speed Precip Events Conditions
12:53 AM 3.9 °F -8.2 °F -4.0 °F 70% 30.35 in 10.0 mi North 6.9 mph - N/A   Clear
1:53 AM 3.0 °F -6.4 °F -4.0 °F 73% 30.36 in 10.0 mi North 4.6 mph - N/A   Clear
2:53 AM 1.9 °F - -5.1 °F 72% 30.36 in 10.0 mi Calm Calm - N/A   Clear
3:53 AM 1.9 °F - -4.0 °F 76% 30.35 in 10.0 mi Calm Calm - N/A   Clear
4:53 AM 1.9 °F -5.6 °F -5.1 °F 72% 30.36 in 10.0 mi NNW 3.5 mph - N/A   Clear
5:53 AM 1.0 °F - -5.1 °F 75% 30.38 in 10.0 mi Calm Calm - N/A   Clear
6:53 AM -0.0 °F - -6.0 °F 76% 30.39 in 10.0 mi Calm Calm - N/A   Clear
7:53 AM 1.0 °F - -4.0 °F 79% 30.39 in 10.0 mi Calm Calm - N/A   Clear
8:53 AM 3.9 °F -3.4 °F -2.0 °F 76% 30.39 in 10.0 mi SE 3.5 mph - N/A   Clear
9:53 AM 7.0 °F -1.7 °F -0.0 °F 73% 30.39 in 10.0 mi SE 4.6 mph - N/A   Clear
10:53 AM 10.9 °F 0.2 °F 1.9 °F 67% 30.39 in 10.0 mi SSE 6.9 mph - N/A   Clear
11:53 AM 16.0 °F 4.4 °F 3.0 °F 57% 30.33 in 10.0 mi SE 9.2 mph - N/A   Clear
12:53 PM 19.0 °F 6.1 °F 3.9 °F 52% 30.32 in 10.0 mi SSE 12.7 mph - N/A   Clear
1:53 PM 21.0 °F 9.9 °F 5.0 °F 50% 30.27 in 10.0 mi SE 10.4 mph - N/A   Overcast
2:53 PM 24.1 °F 12.5 °F 6.1 °F 46% 30.25 in 10.0 mi SE 12.7 mph - N/A   Partly Cloudy
3:53 PM 24.1 °F 13.1 °F 7.0 °F 48% 30.23 in 10.0 mi SE 11.5 mph - N/A   Scattered Clouds
4:53 PM 24.1 °F 13.1 °F 8.1 °F 51% 30.20 in 10.0 mi ESE 11.5 mph - N/A   Mostly Cloudy
5:53 PM 24.1 °F 12.0 °F 9.0 °F 53% 30.19 in 10.0 mi SE 13.8 mph - N/A   Overcast
6:53 PM 24.1 °F 12.0 °F 9.0 °F 53% 30.19 in 10.0 mi SE 13.8 mph - N/A   Overcast
7:53 PM 24.1 °F 13.7 °F 9.0 °F 53% 30.19 in 10.0 mi SE 10.4 mph - N/A   Mostly Cloudy
8:53 PM 23.0 °F 13.1 °F 9.0 °F 55% 30.18 in 10.0 mi SE 9.2 mph - N/A   Overcast
9:53 PM 21.9 °F 11.0 °F 10.0 °F 60% 30.16 in 10.0 mi ESE 10.4 mph - N/A   Partly Cloudy
10:53 PM 23.0 °F 13.1 °F 10.9 °F 60% 30.15 in 10.0 mi ESE 9.2 mph - N/A   Scattered Clouds
11:53 PM 24.1 °F 13.1 °F 10.9 °F 57% 30.14 in 10.0 mi SE 11.5 mph - N/A   Partly Cloudy